EW4415 Weather Reports


time (UTC)temp
C
wind
direction
speed
KPH
gust
KPH
rain 1hr
cm
rain 24hr
cm
rain mn
cm
humidity
%
barometer
mb
20260507064604 8 67 0.0 0.0 0.00 0.00 0.00 54 1015.7
20260507063047 7 132 0.0 0.0 0.00 0.00 0.00 57 1015.7
20260507061539 6 132 0.0 0.0 0.00 0.00 0.00 58 1015.7
20260507060036 6 137 0.0 0.0 0.00 0.00 0.00 57 1015.7
20260507054529 6 157 0.0 0.0 0.00 0.00 0.00 58 1015.6
20260507053025 5 141 0.0 1.6 0.00 0.00 0.00 59 1015.6
20260507051520 3 137 0.0 1.6 0.00 0.00 0.00 59 1015.6
20260507050016 2 5 0.0 0.0 0.00 0.00 0.00 57 1015.6
20260507044512 1 319 0.0 0.0 0.00 0.00 0.00 49 1015.6
20260507043008 0 101 0.0 0.0 0.00 0.00 0.00 27 1015.7
20260507041506 0 48 0.0 0.0 0.00 0.00 0.00 12 1015.6
20260507040059 -1 54 0.0 0.0 0.00 0.00 0.00 1 1015.6
20260507034557 -1 44 0.0 0.0 0.00 0.00 0.00 1 1015.6
20260507033050 -2 284 0.0 0.0 0.00 0.00 0.00 1 1015.6
20260507031545 -2 284 0.0 0.0 0.00 0.00 0.00 1 1015.4
20260507030041 -2 284 0.0 0.0 0.00 0.00 0.00 1 1015.3
20260507024536 -2 284 0.0 0.0 0.00 0.00 0.00 1 1015.3
20260507023032 -2 284 0.0 0.0 0.00 0.00 0.00 1 1015.4
20260507021527 -2 284 0.0 0.0 0.00 0.00 0.00 1 1015.4
20260507020027 -2 284 0.0 0.0 0.00 0.00 0.00 1 1015.3
20260507014527 -2 284 0.0 0.0 0.00 0.00 0.00 1 1015.3
20260507013031 -2 284 0.0 0.0 0.00 0.00 0.00 1 1015.2
20260507011523 -2 284 0.0 0.0 0.00 0.00 0.00 1 1015.2
20260507010007 -2 284 0.0 0.0 0.00 0.00 0.00 1 1015.1
20260507004501 -2 284 0.0 0.0 0.00 0.00 0.00 1 1015.2
20260507003057 -2 284 0.0 0.0 0.00 0.00 0.00 1 1015.0
20260507001609 -2 284 0.0 0.0 0.00 0.00 0.00 1 1015.1
20260507000049 -1 284 0.0 0.0 0.00 0.00 0.00 1 1015.0
20260506234545 -1 284 0.0 0.0 0.00 0.00 0.00 1 1014.9
20260506233045 -1 284 0.0 0.0 0.00 0.00 0.00 1 1015.0
20260506231539 -1 284 0.0 0.0 0.00 0.00 0.00 1 1014.9
20260506230031 -1 284 0.0 0.0 0.00 0.00 0.00 1 1014.9
20260506224527 -1 284 0.0 0.0 0.00 0.00 0.00 1 1014.9
20260506223024 -1 284 0.0 0.0 0.00 0.00 0.00 1 1014.8
20260506221517 -1 284 0.0 0.0 0.00 0.00 0.00 1 1014.8
20260506220013 -1 284 0.0 0.0 0.00 0.00 0.00 5 1014.6
20260506214509 0 284 0.0 0.0 0.00 0.00 0.00 11 1014.6
20260506213005 0 284 0.0 0.0 0.00 0.00 0.00 17 1014.5
20260506211600 0 284 0.0 0.0 0.00 0.00 0.00 26 1014.4
20260506210109 0 284 0.0 0.0 0.00 0.00 0.00 34 1014.4
20260506204552 1 284 0.0 0.0 0.00 0.00 0.00 39 1014.3
20260506203050 1 284 0.0 0.0 0.00 0.00 0.00 44 1014.3
20260506201546 2 284 0.0 0.0 0.00 0.00 0.00 47 1014.3
20260506200058 2 284 0.0 0.0 0.00 0.00 0.00 51 1014.2
20260506194535 3 284 0.0 0.0 0.00 0.00 0.00 53 1014.1
20260506193031 3 284 0.0 0.0 0.00 0.00 0.00 56 1014.1
20260506191526 4 284 0.0 0.0 0.00 0.00 0.00 59 1014.1
20260506190021 5 284 0.0 0.0 0.00 0.00 0.00 61 1014.1
20260506184516 5 284 0.0 0.0 0.00 0.00 0.00 61 1014.2
20260506183011 5 284 0.0 0.0 0.00 0.00 0.00 62 1014.1
20260506181508 6 284 0.0 0.0 0.00 0.00 0.00 61 1014.1
20260506180005 6 284 0.0 0.0 0.00 0.00 0.00 60 1014.1
20260506174601 7 251 0.0 0.0 0.00 0.00 0.00 59 1014.0
20260506173111 7 206 0.0 0.0 0.00 0.00 0.00 56 1014.0
20260506171558 7 245 0.0 0.0 0.00 0.00 0.00 54 1013.9
20260506170047 7 317 0.0 0.0 0.00 0.00 0.00 51 1013.9
20260506164542 8 76 0.0 1.6 0.00 0.00 0.00 50 1013.7
20260506163046 8 62 0.0 1.6 0.00 0.00 0.00 51 1013.7
20260506161547 9 284 0.0 1.6 0.00 0.00 0.00 51 1013.7
20260506160029 9 343 0.0 1.6 0.00 0.00 0.00 49 1013.8
20260506154525 9 165 0.0 0.0 0.00 0.00 0.00 51 1013.7
20260506153025 8 306 0.0 3.2 0.00 0.00 0.00 50 1013.7
20260506151522 8 260 0.0 3.2 0.00 0.00 0.00 48 1013.6
20260506150023 10 130 0.0 1.6 0.00 0.00 0.00 47 1013.7
20260506144514 10 132 0.0 0.0 0.00 0.00 0.00 48 1013.8
20260506143010 10 342 0.0 3.2 0.00 0.00 0.00 48 1013.7
20260506141504 10 290 0.0 1.6 0.00 0.00 0.00 48 1013.9
20260506134618 10 261 0.0 8.0 0.00 0.00 0.00 48 1013.7
20260506133052 10 182 0.0 6.4 0.00 0.00 0.00 48 1013.6
20260506131605 8 360 0.0 16.1 0.00 0.00 0.00 48 1013.5
20260506130044 10 118 0.0 3.2 0.00 0.00 0.00 46 1013.6
20260506124538 11 30 0.0 1.6 0.00 0.00 0.00 47 1013.5
20260506123040 11 63 0.0 8.0 0.00 0.00 0.00 46 1013.5
20260506121529 10 100 0.0 14.5 0.00 0.00 0.00 47 1013.4
20260506120025 9 305 0.0 1.6 0.00 0.00 0.00 51 1013.4
20260506114531 9 296 0.0 3.2 0.00 0.00 0.00 48 1013.4
20260506113018 9 67 0.0 1.6 0.00 0.00 0.00 46 1013.4
20260506111512 11 249 0.0 3.2 0.00 0.00 0.00 43 1013.3
20260506110014 10 91 0.0 0.0 0.00 0.00 0.00 45 1013.1
20260506104504 11 321 0.0 1.6 0.00 0.00 0.00 41 1013.2
20260506103106 11 270 0.0 4.8 0.00 0.00 0.00 33 1013.1
20260506101554 11 327 0.0 4.8 0.00 0.00 0.00 35 1013.0
20260506100051 11 347 0.0 0.0 0.00 0.00 0.00 37 1012.9
20260506094547 10 282 0.0 1.6 0.00 0.00 0.00 38 1012.8
20260506093051 10 254 0.0 3.2 0.00 0.00 0.00 41 1012.8
20260506091540 10 258 0.0 0.0 0.00 0.00 0.00 41 1012.7
20260506090033 10 290 0.0 1.6 0.00 0.00 0.00 41 1012.5
20260506084529 10 292 0.0 3.2 0.00 0.00 0.00 42 1012.5
20260506083024 9 302 0.0 0.0 0.00 0.00 0.00 44 1012.6
20260506081523 10 279 0.0 0.0 0.00 0.00 0.00 47 1012.4
20260506073007 9 293 0.0 0.0 0.00 0.00 0.00 49 1012.2
20260506071501 8 298 0.0 0.0 0.00 0.00 0.00 53 1012.1
20260506070124 8 263 0.0 0.0 0.00 0.00 0.00 56 1012.1